• In Romania
  • List of Countries
  • For 7 days
  • Water Temperature
  • Satellite Maps
  • Weather Map
  • Weather Widgets
  • user-avatar
    Login

    Hourly Weather Passo Fundo

    Today, 21 November, Tuesday

    Time Temperature Precipitation Wind Pressure Humidity
    00:00 +18°C° 0 mm 3 mps 703 mmHg 81%
    01:00 +18°C° 0 mm 3 mps 703 mmHg 84%
    02:00 +18°C° 0 mm 4 mps 702 mmHg 87%
    03:00 +18°C° 0 mm 4 mps 702 mmHg 89%
    04:00 +18°C° 0 mm 3 mps 702 mmHg 90%
    05:00 +17°C° 0 mm 3 mps 703 mmHg 92%
    06:00 +17°C° 0 mm 3 mps 703 mmHg 93%
    07:00 +19°C° 0.1 mm 3 mps 703 mmHg 86%
    08:00 +22°C° 0.1 mm 3 mps 704 mmHg 80%
    09:00 +25°C° 0.1 mm 4 mps 704 mmHg 73%
    10:00 +26°C° 0.2 mm 3 mps 704 mmHg 65%
    11:00 +27°C° 0.2 mm 3 mps 704 mmHg 58%
    12:00 +29°C° 0.2 mm 3 mps 704 mmHg 50%
    13:00 +29°C° 0.1 mm 3 mps 703 mmHg 50%
    14:00 +29°C° 0.1 mm 3 mps 703 mmHg 51%
    15:00 +28°C° 0.1 mm 3 mps 703 mmHg 52%
    16:00 +26°C° 0.5 mm 4 mps 703 mmHg 61%
    17:00 +23°C° 0.5 mm 5 mps 703 mmHg 70%
    18:00 +21°C° 0.5 mm 6 mps 703 mmHg 79%
    19:00 +19°C° 0.1 mm 6 mps 703 mmHg 83%
    20:00 +17°C° 0.1 mm 5 mps 703 mmHg 87%
    21:00 +15°C° 0.1 mm 5 mps 704 mmHg 91%
    22:00 +15°C° 0 mm 5 mps 704 mmHg 90%
    23:00 +15°C° 0 mm 5 mps 704 mmHg 89%

    Tomorrow, 22 November, Wednesday

    Time Temperature Precipitation Wind Pressure Humidity
    00:00 +14°C° 0 mm 5 mps 705 mmHg 89%
    01:00 +14°C° 0 mm 5 mps 704 mmHg 88%
    02:00 +14°C° 0 mm 4 mps 704 mmHg 88%
    03:00 +14°C° 0 mm 4 mps 704 mmHg 88%
    04:00 +13°C° 0 mm 4 mps 704 mmHg 89%
    05:00 +13°C° 0 mm 4 mps 705 mmHg 89%
    06:00 +12°C° 0 mm 4 mps 705 mmHg 90%
    07:00 +13°C° 0 mm 4 mps 705 mmHg 86%
    08:00 +14°C° 0 mm 4 mps 705 mmHg 82%
    09:00 +15°C° 0 mm 4 mps 706 mmHg 77%
    10:00 +17°C° 0 mm 4 mps 706 mmHg 71%
    11:00 +19°C° 0 mm 4 mps 706 mmHg 64%
    12:00 +20°C° 0 mm 3 mps 706 mmHg 57%
    13:00 +21°C° 0 mm 3 mps 705 mmHg 53%
    14:00 +21°C° 0 mm 3 mps 705 mmHg 49%
    15:00 +22°C° 0 mm 3 mps 704 mmHg 45%
    16:00 +21°C° 0 mm 3 mps 704 mmHg 49%
    17:00 +21°C° 0 mm 3 mps 704 mmHg 54%
    18:00 +20°C° 0 mm 3 mps 704 mmHg 59%
    19:00 +18°C° 0 mm 3 mps 704 mmHg 62%
    20:00 +16°C° 0 mm 3 mps 704 mmHg 65%
    21:00 +13°C° 0 mm 3 mps 705 mmHg 68%
    22:00 +13°C° 0 mm 3 mps 705 mmHg 69%
    23:00 +12°C° 0 mm 3 mps 705 mmHg 70%

    Day after tomorrow, 23 November, Thursday

    Time Temperature Precipitation Wind Pressure Humidity
    00:00 +11°C° 0 mm 4 mps 705 mmHg 72%
    01:00 +11°C° 0 mm 3 mps 705 mmHg 76%
    02:00 +10°C° 0 mm 3 mps 704 mmHg 80%
    03:00 +10°C° 0 mm 3 mps 704 mmHg 84%
    04:00 +10°C° 0 mm 3 mps 704 mmHg 86%
    05:00 +10°C° 0 mm 2 mps 704 mmHg 89%
    06:00 +12°C° 0 mm 2 mps 705 mmHg 91%
    07:00 +13°C° 0 mm 3 mps 705 mmHg 83%
    08:00 +17°C° 0 mm 3 mps 705 mmHg 76%
    09:00 +20°C° 0 mm 3 mps 706 mmHg 68%
    10:00 +21°C° 0 mm 3 mps 706 mmHg 60%
    11:00 +24°C° 0 mm 2 mps 705 mmHg 53%
    12:00 +25°C° 0 mm 2 mps 705 mmHg 45%
    13:00 +26°C° 0 mm 2 mps 705 mmHg 43%
    14:00 +26°C° 0 mm 2 mps 704 mmHg 40%
    15:00 +27°C° 0 mm 1 mps 704 mmHg 37%
    16:00 +27°C° 0 mm 1 mps 704 mmHg 42%
    17:00 +26°C° 0 mm 1 mps 704 mmHg 46%
    18:00 +25°C° 0 mm 1 mps 704 mmHg 50%
    19:00 +23°C° 0 mm 1 mps 704 mmHg 53%
    20:00 +21°C° 0 mm 1 mps 704 mmHg 55%
    21:00 +19°C° 0 mm 1 mps 704 mmHg 58%
    22:00 +18°C° 0 mm 1 mps 704 mmHg 61%
    23:00 +17°C° 0 mm 2 mps 704 mmHg 63%

    24 November, Friday

    Time Temperature Precipitation Wind Pressure Humidity
    00:00 +16°C° 0 mm 2 mps 704 mmHg 66%
    01:00 +15°C° 0 mm 2 mps 704 mmHg 68%
    02:00 +15°C° 0 mm 2 mps 704 mmHg 71%
    03:00 +14°C° 0 mm 2 mps 704 mmHg 74%
    04:00 +13°C° 0 mm 3 mps 704 mmHg 78%
    05:00 +13°C° 0 mm 3 mps 704 mmHg 83%
    06:00 +13°C° 0 mm 3 mps 705 mmHg 88%
    07:00 +17°C° 0 mm 3 mps 706 mmHg 79%
    08:00 +20°C° 0 mm 3 mps 706 mmHg 71%
    09:00 +24°C° 0 mm 3 mps 707 mmHg 63%
    10:00 +25°C° 0 mm 3 mps 707 mmHg 55%
    11:00 +27°C° 0 mm 2 mps 707 mmHg 46%
    12:00 +29°C° 0 mm 2 mps 707 mmHg 37%
    13:00 +30°C° 0 mm 2 mps 706 mmHg 35%
    14:00 +31°C° 0 mm 1 mps 706 mmHg 33%
    15:00 +29°C° 0 mm 0 mps 705 mmHg 31%
    16:00 +30°C° 0 mm 1 mps 705 mmHg 36%
    17:00 +29°C° 0 mm 1 mps 705 mmHg 41%
    18:00 +28°C° 0 mm 1 mps 704 mmHg 45%
    19:00 +26°C° 0 mm 2 mps 705 mmHg 49%
    20:00 +24°C° 0 mm 2 mps 705 mmHg 53%
    21:00 +21°C° 0 mm 2 mps 705 mmHg 56%
    22:00 +20°C° 0 mm 3 mps 705 mmHg 64%
    23:00 +19°C° 0 mm 4 mps 705 mmHg 72%

    25 November, Saturday

    Time Temperature Precipitation Wind Pressure Humidity
    00:00 +18°C° 0 mm 4 mps 705 mmHg 80%
    01:00 +17°C° 0 mm 4 mps 705 mmHg 81%
    02:00 +17°C° 0 mm 4 mps 705 mmHg 83%
    03:00 +17°C° 0 mm 4 mps 705 mmHg 85%
    04:00 +17°C° 0 mm 4 mps 705 mmHg 85%
    05:00 +17°C° 0 mm 4 mps 705 mmHg 85%
    06:00 +17°C° 0 mm 4 mps 705 mmHg 85%
    07:00 +19°C° 0 mm 4 mps 706 mmHg 78%
    08:00 +21°C° 0 mm 4 mps 706 mmHg 72%
    09:00 +25°C° 0 mm 4 mps 707 mmHg 65%
    10:00 +26°C° 0.1 mm 4 mps 706 mmHg 60%
    11:00 +28°C° 0.1 mm 4 mps 706 mmHg 55%
    12:00 +29°C° 0.1 mm 4 mps 706 mmHg 50%
    13:00 +29°C° 0.1 mm 4 mps 706 mmHg 50%
    14:00 +29°C° 0.1 mm 3 mps 705 mmHg 50%
    15:00 +29°C° 0.1 mm 2 mps 705 mmHg 50%
    16:00 +27°C° 0.3 mm 3 mps 705 mmHg 58%
    17:00 +26°C° 0.3 mm 3 mps 704 mmHg 66%
    18:00 +24°C° 0.3 mm 3 mps 704 mmHg 73%
    19:00 +22°C° 0.3 mm 3 mps 704 mmHg 79%
    20:00 +21°C° 0.3 mm 3 mps 704 mmHg 85%
    21:00 +19°C° 0.3 mm 3 mps 704 mmHg 91%
    22:00 +19°C° 0.5 mm 3 mps 704 mmHg 92%
    23:00 +19°C° 0.5 mm 3 mps 704 mmHg 93%

    26 November, Sunday

    Time Temperature Precipitation Wind Pressure Humidity
    00:00 +19°C° 0.5 mm 2 mps 704 mmHg 93%
    01:00 +19°C° 0.4 mm 2 mps 703 mmHg 93%
    02:00 +19°C° 0.4 mm 3 mps 703 mmHg 93%
    03:00 +19°C° 0.4 mm 3 mps 702 mmHg 92%
    04:00 +18°C° 1.3 mm 2 mps 702 mmHg 93%
    05:00 +18°C° 1.3 mm 2 mps 702 mmHg 94%
    06:00 +18°C° 1.3 mm 2 mps 702 mmHg 95%
    07:00 +19°C° 1.3 mm 2 mps 702 mmHg 91%
    08:00 +20°C° 1.3 mm 3 mps 702 mmHg 87%
    09:00 +21°C° 1.3 mm 3 mps 702 mmHg 84%
    10:00 +22°C° 1.4 mm 4 mps 702 mmHg 80%
    11:00 +25°C° 1.4 mm 5 mps 702 mmHg 76%
    12:00 +26°C° 1.4 mm 6 mps 702 mmHg 72%
    13:00 +26°C° 1.5 mm 5 mps 701 mmHg 73%
    14:00 +26°C° 1.5 mm 5 mps 701 mmHg 73%
    15:00 +26°C° 1.5 mm 4 mps 700 mmHg 74%
    16:00 +25°C° 0.2 mm 4 mps 700 mmHg 75%
    17:00 +25°C° 0.2 mm 3 mps 699 mmHg 77%
    18:00 +25°C° 0.2 mm 2 mps 699 mmHg 79%
    19:00 +23°C° 0.1 mm 2 mps 699 mmHg 83%
    20:00 +22°C° 0.1 mm 1 mps 699 mmHg 87%
    21:00 +20°C° 0.1 mm 1 mps 699 mmHg 92%
    22:00 +20°C° 0 mm 1 mps 699 mmHg 92%
    23:00 +19°C° 0 mm 1 mps 699 mmHg 93%
    Show more